AU224 Weather Reports


Display with metric or nautical units.
time (UTC)temp
F
wind
direction
speed
MPH
gust
MPH
rain 1hr
in
rain 24hr
in
rain mn
in
humidity
%
barometer
mb
20260902234554 58 0 0.0 0.0 0.00 0.00 0.00 73 1019.6
20260902233053 58 0 0.0 0.0 0.00 0.00 0.00 72 1019.6
20260902231551 58 0 0.0 0.0 0.00 0.00 0.00 71 1019.8
20260902230049 59 0 0.0 0.0 0.00 0.00 0.00 71 1019.7
20260902224558 59 0 0.0 0.0 0.00 0.00 0.00 70 1019.7
20260902223050 59 0 0.0 0.0 0.00 0.00 0.00 69 1019.7
20260902221559 60 0 0.0 0.0 0.00 0.00 0.00 69 1019.6
20260902214550 61 0 0.0 0.0 0.00 0.00 0.00 68 1019.4
20260902213049 61 0 0.0 0.0 0.00 0.00 0.00 67 1019.5
20260902211554 62 0 0.0 0.0 0.00 0.00 0.00 66 1019.4
20260902204552 64 0 0.0 0.0 0.00 0.00 0.00 63 1019.1
20260902203105 65 0 0.0 0.0 0.00 0.00 0.00 63 1019.0
20260902201553 65 0 0.0 0.0 0.00 0.00 0.00 61 1019.0
20260902200107 66 0 0.0 0.0 0.00 0.00 0.00 59 1019.0
20260902194559 66 0 0.0 0.0 0.00 0.00 0.00 59 1019.0
20260902193053 67 0 0.0 0.0 0.00 0.00 0.00 57 1019.0
20260902191559 68 0 0.0 0.0 0.00 0.00 0.00 56 1018.9
20260902190116 68 0 0.0 1.0 0.00 0.00 0.00 55 1018.8
20260902184644 69 0 0.0 7.0 0.00 0.00 0.00 53 1018.7
20260902183054 69 0 0.0 0.0 0.00 0.00 0.00 52 1018.4
20260902181608 70 0 0.0 0.0 0.00 0.00 0.00 51 1018.2
20260902180052 70 0 0.0 0.0 0.00 0.00 0.00 50 1018.1
20260902174558 70 0 0.0 0.0 0.00 0.00 0.00 49 1018.0
20260902173055 71 0 0.0 3.0 0.00 0.00 0.00 49 1017.8
20260902171614 71 252 0.0 1.0 0.00 0.00 0.00 49 1017.8
20260902170051 71 0 0.0 2.0 0.00 0.00 0.00 49 1017.8
20260902164603 72 0 0.0 6.0 0.00 0.00 0.00 48 1017.8
20260902163054 73 0 0.0 10.0 0.00 0.00 0.00 46 1017.7
20260902161552 74 360 1.0 11.0 0.00 0.00 0.00 46 1017.6
20260902160053 74 0 0.0 8.0 0.00 0.00 0.00 46 1017.5
20260902154552 74 360 3.0 9.0 0.00 0.00 0.00 44 1017.5
20260902153104 75 157 0.0 9.0 0.00 0.00 0.00 46 1017.6
20260902151600 75 254 5.0 14.0 0.00 0.00 0.00 43 1017.7
20260902150054 75 360 5.0 13.0 0.00 0.00 0.00 43 1017.8
20260902144558 74 161 0.0 9.0 0.00 0.00 0.00 46 1017.7
20260902143048 75 297 4.0 9.0 0.00 0.00 0.00 48 1017.8
20260902141550 76 360 9.0 12.0 0.00 0.00 0.00 43 1017.9
20260902140056 76 270 0.0 6.0 0.00 0.00 0.00 46 1017.8
20260902134609 76 273 6.0 14.0 0.00 0.00 0.00 44 1018.0
20260902133053 76 360 4.0 12.0 0.00 0.00 0.00 43 1018.0
20260902131552 75 0 0.0 8.0 0.00 0.00 0.00 45 1018.0
20260902130053 75 318 5.0 11.0 0.00 0.00 0.00 48 1018.0
20260902124556 76 0 0.0 5.0 0.00 0.00 0.00 47 1018.1
20260902123059 75 0 0.0 12.0 0.00 0.00 0.00 49 1018.2
20260902121553 75 253 0.0 12.0 0.00 0.00 0.00 49 1018.4
20260902114554 74 360 8.0 13.0 0.00 0.00 0.00 49 1018.7
20260902113051 74 0 0.0 9.0 0.00 0.00 0.00 53 1018.6
20260902111551 73 360 0.0 7.0 0.00 0.00 0.00 55 1018.7
20260902110054 72 0 0.0 4.0 0.00 0.00 0.00 56 1018.9
20260902104551 71 288 0.0 4.0 0.00 0.00 0.00 58 1018.9
20260902103046 71 0 0.0 2.0 0.00 0.00 0.00 60 1019.1
20260902101557 70 0 0.0 4.0 0.00 0.00 0.00 59 1019.2
20260902100052 69 0 0.0 2.0 0.00 0.00 0.00 60 1019.3
20260902094555 68 0 0.0 4.0 0.00 0.00 0.00 63 1019.3
20260902093056 67 0 0.0 0.0 0.00 0.00 0.00 63 1019.3
20260902091554 67 269 0.0 3.0 0.00 0.00 0.00 64 1019.3
20260902090053 67 0 0.0 2.0 0.00 0.00 0.00 66 1019.2
20260902084555 66 0 0.0 0.0 0.00 0.00 0.00 64 1019.3
20260902083049 66 0 0.0 0.0 0.00 0.00 0.00 68 1019.2
20260902081556 65 0 0.0 0.0 0.00 0.00 0.00 69 1019.1
20260902080054 64 0 0.0 0.0 0.00 0.00 0.00 69 1018.8
20260902074608 62 0 0.0 0.0 0.00 0.00 0.00 72 1018.8
20260902073044 62 0 0.0 1.0 0.00 0.00 0.00 75 1018.9
20260902071553 60 0 0.0 0.0 0.00 0.00 0.00 76 1018.9
20260902070056 59 0 0.0 0.0 0.00 0.00 0.00 78 1018.9
20260902064551 58 0 0.0 0.0 0.00 0.00 0.00 77 1019.1
20260902063113 57 0 0.0 0.0 0.00 0.00 0.00 80 1019.2
20260902061554 55 0 0.0 0.0 0.00 0.00 0.00 80 1019.1
20260902060106 53 167 0.0 5.0 0.00 0.00 0.00 82 1019.1
20260902054552 51 0 0.0 5.0 0.00 0.00 0.00 84 1019.1
20260902053056 50 158 0.0 3.0 0.00 0.00 0.00 82 1018.9
20260902051557 50 0 0.0 3.0 0.00 0.00 0.00 81 1018.9
20260902050049 50 164 0.0 0.0 0.00 0.00 0.00 81 1018.7
20260902044556 50 0 0.0 0.0 0.00 0.00 0.00 81 1018.8
20260902043114 50 0 0.0 4.0 0.00 0.00 0.00 81 1018.8
20260902041607 50 0 0.0 2.0 0.00 0.00 0.00 81 1018.8
20260902034604 50 0 0.0 4.0 0.00 0.00 0.00 80 1018.8
20260902033054 51 0 0.0 0.0 0.00 0.00 0.00 80 1018.8
20260902031554 51 0 0.0 0.0 0.00 0.00 0.00 80 1018.8
20260902030050 51 0 0.0 0.0 0.00 0.00 0.00 80 1018.9
20260902024548 51 0 0.0 2.0 0.00 0.00 0.00 80 1018.9
20260902023053 51 0 0.0 0.0 0.00 0.00 0.00 80 1019.0
20260902021554 51 0 0.0 0.0 0.00 0.00 0.00 79 1018.8
20260902020050 52 0 0.0 0.0 0.00 0.00 0.00 78 1019.1
20260902014552 52 0 0.0 0.0 0.00 0.00 0.00 78 1019.1
20260902013052 52 0 0.0 0.0 0.00 0.00 0.00 78 1019.2
20260902011556 52 0 0.0 0.0 0.00 0.00 0.00 78 1019.2
20260902010056 53 0 0.0 0.0 0.00 0.00 0.00 78 1019.2
20260902004558 53 0 0.0 0.0 0.00 0.00 0.00 78 1019.3
20260902003125 53 0 0.0 0.0 0.00 0.00 0.00 77 1019.2
20260902001556 54 0 0.0 2.0 0.00 0.00 0.00 76 1019.4
20260902000057 54 0 0.0 0.0 0.00 0.00 0.00 76 1019.5